User: anonymous   Login
Location: Young's Pond
(41.2695°N, 72.7766°W)
Time: 06:27:21
(UTC-04:00)
Language:

Spot 4 - Orbit

View from above orbital plane
View from above orbital plane
View from above satellite
View from above satellite

Ground track
Ground track

The orbit data is extracted from the following two-line orbital elements,

1 25260U 98017A   16269.22908810  .00000091  00000-0  32842-4 0  9997
2 25260  98.3742 346.2303 0013336  13.1140 347.0399 14.53431120963363
Epoch (UTC): 25 September 2016 05:29:53
Eccentricity: 0.0013336
inclination: 98.3742°
perigee height: 705 km
apogee height: 724 km
right ascension of ascending node: 346.2303°
argument of perigee: 13.1140°
revolutions per day: 14.53431120
mean anomaly at epoch: 347.0399°
orbit number at epoch: 96336

The dashed part of the orbit path shows where the satellite is in the earth's shadow,  

DLR